Time,TemperatureF,DewpointF,PressureIn,WindDirection,WindDirectionDegrees,WindSpeedMPH,WindSpeedGustMPH,Humidity,HourlyPrecipIn,Conditions,Clouds,dailyrainin,SoftwareType,DateUTC
2013-02-04 00:00:00,47.7,34.7,30.17,NNE,31,3.0,3.0,42,0.00,,,0.00,meteohub,2013-02-04 08:00:00,
2013-02-04 00:06:00,47.8,34.7,30.17,NNE,30,2.0,3.0,42,0.00,,,0.00,meteohub,2013-02-04 08:06:00,
2013-02-04 00:11:00,48.0,34.7,30.16,NNE,30,2.0,3.0,42,0.00,,,0.00,meteohub,2013-02-04 08:11:00,
2013-02-04 00:16:00,48.0,34.7,30.16,NNE,30,2.0,3.0,42,0.00,,,0.00,meteohub,2013-02-04 08:16:00,
2013-02-04 00:21:00,47.8,34.5,30.16,NNE,30,2.0,3.0,42,0.00,,,0.00,meteohub,2013-02-04 08:21:00,
2013-02-04 00:27:00,47.7,34.5,30.16,NNE,30,1.0,3.0,42,0.00,,,0.00,meteohub,2013-02-04 08:27:00,
2013-02-04 00:32:00,47.7,34.5,30.16,NNE,30,3.0,3.0,42,0.00,,,0.00,meteohub,2013-02-04 08:32:00,
2013-02-04 00:37:00,47.7,34.5,30.16,NNE,30,3.0,4.0,42,0.00,,,0.00,meteohub,2013-02-04 08:37:00,
2013-02-04 00:42:00,47.3,34.5,30.16,NNE,30,2.0,4.0,42,0.00,,,0.00,meteohub,2013-02-04 08:42:00,
2013-02-04 00:47:00,47.1,34.3,30.16,NNE,30,2.0,4.0,42,0.00,,,0.00,meteohub,2013-02-04 08:47:00,
2013-02-04 00:52:00,47.5,34.3,30.16,NNE,30,2.0,4.0,42,0.00,,,0.00,meteohub,2013-02-04 08:52:00,
2013-02-04 00:57:00,47.7,34.2,30.16,NNE,30,2.0,4.0,42,0.00,,,0.00,meteohub,2013-02-04 08:57:00,
2013-02-04 01:02:00,47.5,34.2,30.16,NNE,30,3.0,4.0,42,0.00,,,0.00,meteohub,2013-02-04 09:02:00,
2013-02-04 01:07:00,47.5,34.2,30.16,NNE,30,2.0,3.0,42,0.00,,,0.00,meteohub,2013-02-04 09:07:00,
2013-02-04 01:12:00,47.5,34.2,30.16,NNE,30,3.0,3.0,42,0.00,,,0.00,meteohub,2013-02-04 09:12:00,
2013-02-04 01:17:00,47.7,34.2,30.16,NNE,29,3.0,3.0,42,0.00,,,0.00,meteohub,2013-02-04 09:17:00,
2013-02-04 01:23:00,47.5,34.0,30.16,NE,34,3.0,4.0,42,0.00,,,0.00,meteohub,2013-02-04 09:23:00,
2013-02-04 01:28:00,47.5,34.0,30.16,NE,43,4.0,4.0,42,0.00,,,0.00,meteohub,2013-02-04 09:28:00,
2013-02-04 01:33:00,47.7,34.0,30.16,NNE,23,2.0,5.0,42,0.00,,,0.00,meteohub,2013-02-04 09:33:00,
2013-02-04 01:38:00,47.5,34.0,30.16,NNE,23,3.0,5.0,42,0.00,,,0.00,meteohub,2013-02-04 09:38:00,
2013-02-04 01:43:00,47.7,34.0,30.16,NNE,33,3.0,5.0,42,0.00,,,0.00,meteohub,2013-02-04 09:43:00,
2013-02-04 01:48:00,47.7,33.8,30.16,NNE,33,2.0,5.0,42,0.00,,,0.00,meteohub,2013-02-04 09:48:00,
2013-02-04 01:53:00,47.5,33.8,30.16,NNE,33,2.0,4.0,42,0.00,,,0.00,meteohub,2013-02-04 09:53:00,
2013-02-04 01:59:00,47.1,33.8,30.16,NNE,33,2.0,4.0,42,0.00,,,0.00,meteohub,2013-02-04 09:59:00,
2013-02-04 02:04:00,46.9,33.8,30.16,NNE,33,3.0,3.0,42,0.00,,,0.00,meteohub,2013-02-04 10:04:00,
2013-02-04 02:10:00,46.9,33.6,30.16,NNE,33,2.0,3.0,42,0.00,,,0.00,meteohub,2013-02-04 10:10:00,
2013-02-04 02:15:00,47.1,33.6,30.16,NNE,33,3.0,3.0,42,0.00,,,0.00,meteohub,2013-02-04 10:15:00,
2013-02-04 02:20:00,47.1,33.6,30.16,NNE,23,4.0,6.0,42,0.00,,,0.00,meteohub,2013-02-04 10:20:00,
2013-02-04 02:25:00,47.1,33.6,30.16,NNE,28,4.0,6.0,42,0.00,,,0.00,meteohub,2013-02-04 10:25:00,
2013-02-04 02:31:00,47.3,33.6,30.16,NNE,33,3.0,6.0,42,0.00,,,0.00,meteohub,2013-02-04 10:31:00,
2013-02-04 02:36:00,47.3,33.6,30.16,NE,40,2.0,6.0,42,0.00,,,0.00,meteohub,2013-02-04 10:36:00,
2013-02-04 02:41:00,47.3,33.4,30.16,NNE,30,3.0,6.0,42,0.00,,,0.00,meteohub,2013-02-04 10:41:00,
2013-02-04 02:46:00,47.5,33.4,30.16,NNE,30,2.0,5.0,42,0.00,,,0.00,meteohub,2013-02-04 10:46:00,
2013-02-04 02:52:00,47.5,33.3,30.16,NNE,30,4.0,4.0,42,0.00,,,0.00,meteohub,2013-02-04 10:52:00,
2013-02-04 02:57:00,47.5,33.3,30.16,NE,44,4.0,4.0,42,0.00,,,0.00,meteohub,2013-02-04 10:57:00,
2013-02-04 03:02:00,47.5,33.3,30.15,NE,37,2.0,5.0,42,0.00,,,0.00,meteohub,2013-02-04 11:02:00,
2013-02-04 03:07:00,47.5,33.3,30.15,NE,35,4.0,6.0,42,0.00,,,0.00,meteohub,2013-02-04 11:07:00,
2013-02-04 03:12:00,47.3,33.3,30.15,NE,36,2.0,6.0,42,0.00,,,0.00,meteohub,2013-02-04 11:12:00,
2013-02-04 03:17:00,47.3,33.3,30.15,NE,36,3.0,5.0,42,0.00,,,0.00,meteohub,2013-02-04 11:17:00,
2013-02-04 03:22:00,47.3,33.3,30.14,NE,36,3.0,5.0,42,0.00,,,0.00,meteohub,2013-02-04 11:22:00,
2013-02-04 03:27:00,47.3,33.3,30.14,NE,36,4.0,5.0,42,0.00,,,0.00,meteohub,2013-02-04 11:27:00,
2013-02-04 03:32:00,47.3,33.3,30.14,NE,36,3.0,5.0,42,0.00,,,0.00,meteohub,2013-02-04 11:32:00,
2013-02-04 03:37:00,47.3,33.1,30.14,NE,46,3.0,5.0,42,0.00,,,0.00,meteohub,2013-02-04 11:37:00,
2013-02-04 03:42:00,47.1,33.1,30.14,NE,46,2.0,5.0,42,0.00,,,0.00,meteohub,2013-02-04 11:42:00,
2013-02-04 03:47:00,47.3,33.1,30.14,NE,46,1.0,5.0,42,0.00,,,0.00,meteohub,2013-02-04 11:47:00,
2013-02-04 03:52:00,47.5,33.1,30.14,NE,43,2.0,5.0,42,0.00,,,0.00,meteohub,2013-02-04 11:52:00,
2013-02-04 03:57:00,47.5,33.1,30.14,NE,55,3.0,6.0,42,0.00,,,0.00,meteohub,2013-02-04 11:57:00,
2013-02-04 04:02:00,47.1,32.9,30.14,NE,49,6.0,6.0,42,0.00,,,0.00,meteohub,2013-02-04 12:02:00,
2013-02-04 04:08:00,47.1,32.9,30.14,NE,39,5.0,8.0,42,0.00,,,0.00,meteohub,2013-02-04 12:08:00,
2013-02-04 04:13:00,47.1,32.9,30.14,NE,44,6.0,8.0,42,0.00,,,0.00,meteohub,2013-02-04 12:13:00,
2013-02-04 04:18:00,47.1,32.9,30.14,NE,41,5.0,8.0,42,0.00,,,0.00,meteohub,2013-02-04 12:18:00,
2013-02-04 04:23:00,46.9,32.9,30.14,NE,39,5.0,8.0,42,0.00,,,0.00,meteohub,2013-02-04 12:23:00,
2013-02-04 04:29:00,46.9,32.7,30.14,NE,38,6.0,8.0,42,0.00,,,0.00,meteohub,2013-02-04 12:29:00,
2013-02-04 04:34:00,46.9,32.7,30.14,NE,36,7.0,8.0,42,0.00,,,0.00,meteohub,2013-02-04 12:34:00,
2013-02-04 04:39:00,46.9,32.5,30.14,NE,37,6.0,8.0,42,0.00,,,0.00,meteohub,2013-02-04 12:39:00,
2013-02-04 04:44:00,46.8,32.5,30.14,NE,54,5.0,8.0,42,0.00,,,0.00,meteohub,2013-02-04 12:44:00,
2013-02-04 04:50:00,46.9,32.5,30.14,NE,38,6.0,8.0,42,0.00,,,0.00,meteohub,2013-02-04 12:50:00,
2013-02-04 04:55:00,46.8,32.5,30.14,NE,34,5.0,9.0,42,0.00,,,0.00,meteohub,2013-02-04 12:55:00,
2013-02-04 05:01:00,46.6,32.5,30.14,NE,46,5.0,9.0,42,0.00,,,0.00,meteohub,2013-02-04 13:01:00,
2013-02-04 05:06:00,46.6,32.4,30.14,NE,44,6.0,8.0,42,0.00,,,0.00,meteohub,2013-02-04 13:06:00,
2013-02-04 05:11:00,46.0,32.4,30.14,NNE,32,5.0,9.0,42,0.00,,,0.00,meteohub,2013-02-04 13:11:00,
2013-02-04 05:16:00,46.6,32.0,30.14,NE,34,7.0,9.0,41,0.00,,,0.00,meteohub,2013-02-04 13:16:00,
2013-02-04 05:22:00,46.6,32.2,30.15,NE,34,7.0,9.0,40,0.00,,,0.00,meteohub,2013-02-04 13:22:00,
2013-02-04 05:27:00,46.6,32.2,30.15,North,-999,-999.0,8.0,41,0.00,,,0.00,meteohub,2013-02-04 13:27:00,
2013-02-04 05:32:00,46.6,32.0,30.15,North,-999,-999.0,7.0,41,0.00,,,0.00,meteohub,2013-02-04 13:32:00,
2013-02-04 06:59:00,47.8,31.6,30.15,North,-999,-999.0,-999.0,40,-99.99,,,0.00,meteohub,2013-02-04 14:59:00,
2013-02-04 07:04:00,48.0,31.5,30.16,North,-999,-999.0,-999.0,41,0.00,,,0.00,meteohub,2013-02-04 15:04:00,
2013-02-04 07:09:00,48.4,31.3,30.16,NE,40,4.0,-999.0,41,0.00,,,0.00,meteohub,2013-02-04 15:09:00,
2013-02-04 07:15:00,48.7,31.6,30.17,NE,43,5.0,5.0,42,0.00,,,0.00,meteohub,2013-02-04 15:15:00,
2013-02-04 07:20:00,48.9,31.6,30.17,NE,44,5.0,5.0,42,0.00,,,0.00,meteohub,2013-02-04 15:20:00,
2013-02-04 07:26:00,49.1,31.6,30.17,NE,44,5.0,6.0,42,0.00,,,0.00,meteohub,2013-02-04 15:26:00,
2013-02-04 07:31:00,49.3,31.5,30.17,NE,44,5.0,6.0,42,0.00,,,0.00,meteohub,2013-02-04 15:31:00,
2013-02-04 07:36:00,49.6,31.5,30.17,NE,49,3.0,6.0,42,0.00,,,0.00,meteohub,2013-02-04 15:36:00,
2013-02-04 07:42:00,50.2,31.5,30.17,NE,43,2.0,6.0,42,0.00,,,0.00,meteohub,2013-02-04 15:42:00,
2013-02-04 07:47:00,50.4,31.5,30.17,NE,54,2.0,5.0,42,0.00,,,0.00,meteohub,2013-02-04 15:47:00,
2013-02-04 07:52:00,50.7,31.5,30.17,NE,56,5.0,5.0,42,0.00,,,0.00,meteohub,2013-02-04 15:52:00,
2013-02-04 07:58:00,51.1,31.5,30.17,NE,34,5.0,6.0,42,0.00,,,0.00,meteohub,2013-02-04 15:58:00,
2013-02-04 08:03:00,51.1,31.5,30.18,NE,40,7.0,10.0,42,0.00,,,0.00,meteohub,2013-02-04 16:03:00,
2013-02-04 08:08:00,51.3,31.5,30.18,NE,44,5.0,10.0,42,0.00,,,0.00,meteohub,2013-02-04 16:08:00,
2013-02-04 08:13:00,51.3,31.5,30.18,NE,47,7.0,10.0,42,0.00,,,0.00,meteohub,2013-02-04 16:13:00,
2013-02-04 08:19:00,51.4,31.5,30.18,NE,44,9.0,10.0,42,0.00,,,0.00,meteohub,2013-02-04 16:19:00,
2013-02-04 08:24:00,51.4,31.5,30.19,NE,37,7.0,10.0,42,0.00,,,0.00,meteohub,2013-02-04 16:24:00,
2013-02-04 08:30:00,51.8,31.5,30.19,NE,51,6.0,11.0,42,0.00,,,0.00,meteohub,2013-02-04 16:30:00,
2013-02-04 08:35:00,52.0,31.5,30.19,ENE,58,5.0,11.0,42,0.00,,,0.00,meteohub,2013-02-04 16:35:00,
2013-02-04 08:40:00,52.3,31.5,30.19,NE,49,7.0,10.0,42,0.00,,,0.00,meteohub,2013-02-04 16:40:00,
2013-02-04 08:45:00,52.3,31.5,30.19,NE,40,5.0,10.0,42,0.00,,,0.00,meteohub,2013-02-04 16:45:00,
2013-02-04 08:50:00,52.5,31.5,30.20,NE,56,6.0,9.0,42,0.00,,,0.00,meteohub,2013-02-04 16:50:00,
2013-02-04 08:56:00,52.5,31.5,30.20,NE,39,4.0,10.0,42,0.00,,,0.00,meteohub,2013-02-04 16:56:00,
2013-02-04 09:01:00,52.7,31.5,30.20,NNE,29,6.0,10.0,42,0.00,,,0.00,meteohub,2013-02-04 17:01:00,
2013-02-04 09:06:00,52.9,31.5,30.20,NE,34,6.0,10.0,42,0.00,,,0.00,meteohub,2013-02-04 17:06:00,
2013-02-04 09:11:00,52.9,31.5,30.20,NE,56,11.0,11.0,42,0.00,,,0.00,meteohub,2013-02-04 17:11:00,
2013-02-04 09:16:00,52.9,31.5,30.20,ENE,57,5.0,12.0,42,0.00,,,0.00,meteohub,2013-02-04 17:16:00,
2013-02-04 09:21:00,52.9,31.5,30.20,NE,40,5.0,12.0,42,0.00,,,0.00,meteohub,2013-02-04 17:21:00,
2013-02-04 09:26:00,52.9,31.5,30.20,NNE,31,6.0,12.0,42,0.00,,,0.00,meteohub,2013-02-04 17:26:00,
2013-02-04 09:31:00,53.2,31.5,30.20,NNE,18,9.0,11.0,42,0.00,,,0.00,meteohub,2013-02-04 17:31:00,
2013-02-04 09:36:00,53.6,31.5,30.20,NE,34,9.0,12.0,42,0.00,,,0.00,meteohub,2013-02-04 17:36:00,
2013-02-04 09:41:00,53.4,31.5,30.20,NNE,22,7.0,13.0,42,0.00,,,0.00,meteohub,2013-02-04 17:41:00,
2013-02-04 09:47:00,53.4,31.5,30.20,ENE,60,11.0,13.0,42,0.00,,,0.00,meteohub,2013-02-04 17:47:00,
2013-02-04 09:52:00,53.8,31.5,30.20,NE,42,7.0,14.0,42,0.00,,,0.00,meteohub,2013-02-04 17:52:00,
2013-02-04 09:57:00,54.0,31.5,30.20,NE,45,10.0,14.0,42,0.00,,,0.00,meteohub,2013-02-04 17:57:00,
2013-02-04 10:02:00,53.6,31.5,30.20,NE,36,7.0,14.0,42,0.00,,,0.00,meteohub,2013-02-04 18:02:00,
2013-02-04 10:07:00,53.8,31.5,30.20,NNE,26,9.0,14.0,42,0.00,,,0.00,meteohub,2013-02-04 18:07:00,
2013-02-04 10:12:00,54.0,32.2,30.20,NE,36,12.0,14.0,43,0.00,,,0.00,meteohub,2013-02-04 18:12:00,
2013-02-04 10:17:00,54.3,32.2,30.20,NE,39,8.0,14.0,43,0.00,,,0.00,meteohub,2013-02-04 18:17:00,
2013-02-04 10:22:00,54.7,32.2,30.20,NNE,32,11.0,14.0,43,0.00,,,0.00,meteohub,2013-02-04 18:22:00,
2013-02-04 10:27:00,54.3,32.2,30.20,NE,54,8.0,14.0,43,0.00,,,0.00,meteohub,2013-02-04 18:27:00,
2013-02-04 10:32:00,54.9,32.2,30.20,NE,34,12.0,14.0,43,0.00,,,0.00,meteohub,2013-02-04 18:32:00,
2013-02-04 10:37:00,54.7,32.4,30.20,NE,36,10.0,14.0,43,0.00,,,0.00,meteohub,2013-02-04 18:37:00,
2013-02-04 10:42:00,54.7,32.4,30.20,NE,49,10.0,15.0,43,0.00,,,0.00,meteohub,2013-02-04 18:42:00,
2013-02-04 10:48:00,54.7,32.4,30.20,NNW,342,3.0,16.0,43,0.00,,,0.00,meteohub,2013-02-04 18:48:00,
2013-02-04 10:53:00,54.9,32.4,30.20,ENE,68,6.0,16.0,43,0.00,,,0.00,meteohub,2013-02-04 18:53:00,
2013-02-04 10:58:00,55.2,32.4,30.20,NE,37,8.0,16.0,43,0.00,,,0.00,meteohub,2013-02-04 18:58:00,
2013-02-04 11:04:00,55.2,32.5,30.20,NE,44,8.0,15.0,43,0.00,,,0.00,meteohub,2013-02-04 19:04:00,
2013-02-04 11:09:00,55.2,32.5,30.20,ENE,58,10.0,15.0,43,0.00,,,0.00,meteohub,2013-02-04 19:09:00,
2013-02-04 11:15:00,55.2,32.5,30.20,NE,42,10.0,15.0,43,0.00,,,0.00,meteohub,2013-02-04 19:15:00,
2013-02-04 11:20:00,55.4,32.5,30.20,NE,53,7.0,15.0,43,0.00,,,0.00,meteohub,2013-02-04 19:20:00,
2013-02-04 11:25:00,55.4,32.5,30.19,ENE,61,12.0,14.0,43,0.00,,,0.00,meteohub,2013-02-04 19:25:00,
2013-02-04 11:30:00,55.6,32.5,30.19,NE,49,9.0,14.0,43,0.00,,,0.00,meteohub,2013-02-04 19:30:00,
2013-02-04 11:36:00,55.8,32.5,30.19,NE,56,6.0,14.0,43,0.00,,,0.00,meteohub,2013-02-04 19:36:00,
2013-02-04 11:41:00,55.9,32.7,30.19,NE,45,8.0,14.0,43,0.00,,,0.00,meteohub,2013-02-04 19:41:00,
2013-02-04 11:46:00,55.9,32.7,30.18,NE,56,6.0,13.0,43,0.00,,,0.00,meteohub,2013-02-04 19:46:00,
2013-02-04 11:52:00,55.6,32.7,30.18,ENE,68,6.0,14.0,43,0.00,,,0.00,meteohub,2013-02-04 19:52:00,
2013-02-04 11:57:00,55.9,32.9,30.18,ENE,57,7.0,14.0,43,0.00,,,0.00,meteohub,2013-02-04 19:57:00,
2013-02-04 12:02:00,55.9,32.9,30.18,ENE,72,6.0,14.0,43,0.00,,,0.00,meteohub,2013-02-04 20:02:00,
2013-02-04 12:07:00,56.3,32.9,30.17,ENE,61,2.0,15.0,43,0.00,,,0.00,meteohub,2013-02-04 20:07:00,
2013-02-04 12:12:00,56.8,32.9,30.17,NE,35,10.0,15.0,43,0.00,,,0.00,meteohub,2013-02-04 20:12:00,
2013-02-04 12:17:00,56.7,32.9,30.17,NE,38,11.0,15.0,43,0.00,,,0.00,meteohub,2013-02-04 20:17:00,
2013-02-04 12:22:00,56.5,33.1,30.17,NE,49,9.0,14.0,43,0.00,,,0.00,meteohub,2013-02-04 20:22:00,
2013-02-04 12:27:00,56.5,33.1,30.17,NE,49,8.0,14.0,43,0.00,,,0.00,meteohub,2013-02-04 20:27:00,
2013-02-04 12:33:00,56.1,33.1,30.16,ENE,67,5.0,14.0,43,0.00,,,0.00,meteohub,2013-02-04 20:33:00,
2013-02-04 12:38:00,56.8,33.3,30.16,NE,41,12.0,14.0,43,0.00,,,0.00,meteohub,2013-02-04 20:38:00,
2013-02-04 12:44:00,56.5,33.4,30.16,NE,54,10.0,16.0,43,0.00,,,0.00,meteohub,2013-02-04 20:44:00,
2013-02-04 12:49:00,56.7,33.4,30.16,NNE,27,14.0,16.0,43,0.00,,,0.00,meteohub,2013-02-04 20:49:00,
2013-02-04 12:54:00,56.5,33.4,30.15,NNE,33,8.0,16.0,43,0.00,,,0.00,meteohub,2013-02-04 20:54:00,
2013-02-04 12:59:00,56.7,33.6,30.15,NE,44,8.0,16.0,43,0.00,,,0.00,meteohub,2013-02-04 20:59:00,
2013-02-04 13:04:00,56.8,33.6,30.15,ENE,64,6.0,15.0,43,0.00,,,0.00,meteohub,2013-02-04 21:04:00,
2013-02-04 13:09:00,56.7,33.6,30.14,NE,53,9.0,15.0,43,0.00,,,0.00,meteohub,2013-02-04 21:09:00,
2013-02-04 13:15:00,56.3,33.8,30.14,NE,34,13.0,13.0,43,0.00,,,0.00,meteohub,2013-02-04 21:15:00,
2013-02-04 13:20:00,56.5,33.8,30.14,ENE,76,6.0,13.0,43,0.00,,,0.00,meteohub,2013-02-04 21:20:00,
2013-02-04 13:25:00,56.5,34.5,30.13,NNE,25,7.0,13.0,44,0.00,,,0.00,meteohub,2013-02-04 21:25:00,
2013-02-04 13:30:00,57.0,34.5,30.13,NNE,13,5.0,13.0,44,0.00,,,0.00,meteohub,2013-02-04 21:30:00,
2013-02-04 13:36:00,57.2,34.5,30.13,North,354,6.0,12.0,44,0.00,,,0.00,meteohub,2013-02-04 21:36:00,
2013-02-04 13:41:00,56.7,34.7,30.13,NE,44,6.0,12.0,44,0.00,,,0.00,meteohub,2013-02-04 21:41:00,
2013-02-04 13:46:00,56.8,34.9,30.13,East,82,4.0,11.0,44,0.00,,,0.00,meteohub,2013-02-04 21:46:00,
2013-02-04 13:51:00,57.0,34.9,30.13,NE,35,9.0,11.0,44,0.00,,,0.00,meteohub,2013-02-04 21:51:00,
2013-02-04 13:57:00,57.0,35.1,30.12,NNE,30,2.0,11.0,44,0.00,,,0.00,meteohub,2013-02-04 21:57:00,
2013-02-04 14:02:00,56.7,35.1,30.12,NNE,18,9.0,11.0,44,0.00,,,0.00,meteohub,2013-02-04 22:02:00,
2013-02-04 14:07:00,56.7,35.2,30.12,NE,44,6.0,12.0,44,0.00,,,0.00,meteohub,2013-02-04 22:07:00,
2013-02-04 14:12:00,56.5,35.2,30.12,NE,37,3.0,12.0,44,0.00,,,0.00,meteohub,2013-02-04 22:12:00,
2013-02-04 14:17:00,57.2,35.2,30.12,NE,51,5.0,12.0,44,0.00,,,0.00,meteohub,2013-02-04 22:17:00,
2013-02-04 14:22:00,57.4,35.2,30.12,NE,53,6.0,9.0,44,0.00,,,0.00,meteohub,2013-02-04 22:22:00,
2013-02-04 14:27:00,57.2,35.4,30.12,NNE,24,8.0,10.0,44,0.00,,,0.00,meteohub,2013-02-04 22:27:00,
2013-02-04 14:32:00,57.2,35.6,30.12,NNE,31,5.0,10.0,44,0.00,,,0.00,meteohub,2013-02-04 22:32:00,
2013-02-04 14:37:00,56.8,35.6,30.11,NE,52,6.0,10.0,44,0.00,,,0.00,meteohub,2013-02-04 22:37:00,
2013-02-04 14:42:00,56.7,35.6,30.11,ENE,78,6.0,10.0,44,0.00,,,0.00,meteohub,2013-02-04 22:42:00,
2013-02-04 14:47:00,56.7,36.3,30.11,East,85,2.0,10.0,45,0.00,,,0.00,meteohub,2013-02-04 22:47:00,
2013-02-04 14:52:00,57.0,36.5,30.11,NE,49,5.0,9.0,45,0.00,,,0.00,meteohub,2013-02-04 22:52:00,
2013-02-04 14:57:00,57.2,36.5,30.11,NNE,30,6.0,9.0,45,0.00,,,0.00,meteohub,2013-02-04 22:57:00,
2013-02-04 15:02:00,57.0,36.7,30.11,NE,39,4.0,9.0,45,0.00,,,0.00,meteohub,2013-02-04 23:02:00,
2013-02-04 15:08:00,57.2,36.7,30.11,NE,40,4.0,7.0,45,0.00,,,0.00,meteohub,2013-02-04 23:08:00,
2013-02-04 15:13:00,57.4,37.0,30.11,NE,43,3.0,7.0,45,0.00,,,0.00,meteohub,2013-02-04 23:13:00,
2013-02-04 15:19:00,57.2,37.0,30.11,NE,39,1.0,6.0,45,0.00,,,0.00,meteohub,2013-02-04 23:19:00,
2013-02-04 15:24:00,57.6,37.2,30.11,ENE,60,4.0,6.0,45,0.00,,,0.00,meteohub,2013-02-04 23:24:00,
2013-02-04 15:29:00,57.6,37.4,30.11,ENE,63,2.0,6.0,45,0.00,,,0.00,meteohub,2013-02-04 23:29:00,
2013-02-04 15:34:00,57.7,37.4,30.10,NE,56,0.0,5.0,45,0.00,,,0.00,meteohub,2013-02-04 23:34:00,
2013-02-04 15:39:00,58.6,37.6,30.10,NNW,337,1.0,5.0,45,0.00,,,0.00,meteohub,2013-02-04 23:39:00,
2013-02-04 15:44:00,58.3,37.6,30.10,West,269,6.0,6.0,45,0.00,,,0.00,meteohub,2013-02-04 23:44:00,
2013-02-04 15:50:00,57.7,37.9,30.10,WSW,249,8.0,10.0,45,0.00,,,0.00,meteohub,2013-02-04 23:50:00,
2013-02-04 15:55:00,57.4,37.9,30.10,West,262,5.0,10.0,45,0.00,,,0.00,meteohub,2013-02-04 23:55:00,
2013-02-04 16:00:00,56.7,37.9,30.10,WSW,243,4.0,10.0,45,0.00,,,0.00,meteohub,2013-02-05 00:00:00,
2013-02-04 16:05:00,56.7,38.1,30.10,SW,225,2.0,10.0,45,0.00,,,0.00,meteohub,2013-02-05 00:05:00,
2013-02-04 16:10:00,57.4,38.3,30.09,SW,235,4.0,10.0,45,0.00,,,0.00,meteohub,2013-02-05 00:10:00,
2013-02-04 16:16:00,56.7,38.3,30.09,West,264,7.0,11.0,45,0.00,,,0.00,meteohub,2013-02-05 00:16:00,
2013-02-04 16:21:00,56.3,38.7,30.09,West,276,8.0,11.0,45,0.00,,,0.00,meteohub,2013-02-05 00:21:00,
2013-02-04 16:26:00,55.6,38.7,30.09,WSW,240,5.0,11.0,45,0.00,,,0.00,meteohub,2013-02-05 00:26:00,
2013-02-04 16:31:00,55.0,38.8,30.09,WSW,253,5.0,10.0,45,0.00,,,0.00,meteohub,2013-02-05 00:31:00,
2013-02-04 16:36:00,55.0,39.0,30.09,West,275,9.0,11.0,45,0.00,,,0.00,meteohub,2013-02-05 00:36:00,
2013-02-04 16:41:00,54.1,39.2,30.09,West,271,6.0,12.0,45,0.00,,,0.00,meteohub,2013-02-05 00:41:00,
2013-02-04 16:47:00,54.5,39.2,30.09,SW,236,2.0,12.0,45,0.00,,,0.00,meteohub,2013-02-05 00:47:00,
2013-02-04 16:52:00,54.7,39.4,30.09,WSW,243,2.0,12.0,45,0.00,,,0.00,meteohub,2013-02-05 00:52:00,
2013-02-04 16:57:00,54.3,39.6,30.09,WSW,242,2.0,7.0,45,0.00,,,0.00,meteohub,2013-02-05 00:57:00,
2013-02-04 17:02:00,54.0,39.6,30.09,WSW,246,5.0,8.0,45,0.00,,,0.00,meteohub,2013-02-05 01:02:00,
2013-02-04 17:07:00,52.9,39.7,30.09,WNW,290,5.0,8.0,45,0.00,,,0.00,meteohub,2013-02-05 01:07:00,
2013-02-04 17:12:00,52.2,39.0,30.10,NE,37,5.0,9.0,44,0.00,,,0.00,meteohub,2013-02-05 01:12:00,
2013-02-04 17:17:00,51.3,39.0,30.10,WNW,302,5.0,12.0,44,0.00,,,0.00,meteohub,2013-02-05 01:17:00,
2013-02-04 17:22:00,50.5,39.2,30.10,WSW,255,3.0,12.0,44,0.00,,,0.00,meteohub,2013-02-05 01:22:00,
2013-02-04 17:28:00,49.8,39.2,30.10,WSW,248,3.0,12.0,44,0.00,,,0.00,meteohub,2013-02-05 01:28:00,
2013-02-04 17:34:00,48.9,39.2,30.10,WSW,246,3.0,8.0,44,0.00,,,0.00,meteohub,2013-02-05 01:34:00,
2013-02-04 17:39:00,48.7,39.2,30.10,WSW,243,5.0,8.0,44,0.00,,,0.00,meteohub,2013-02-05 01:39:00,
2013-02-04 17:44:00,48.4,39.4,30.10,WSW,246,4.0,8.0,44,0.00,,,0.00,meteohub,2013-02-05 01:44:00,
2013-02-04 17:49:00,48.0,39.4,30.10,WSW,242,1.0,7.0,44,0.00,,,0.00,meteohub,2013-02-05 01:49:00,
2013-02-04 17:54:00,48.0,39.4,30.11,WSW,242,0.0,7.0,44,0.00,,,0.00,meteohub,2013-02-05 01:54:00,
2013-02-04 18:00:00,47.8,39.4,30.10,WSW,241,0.0,5.0,44,0.00,,,0.00,meteohub,2013-02-05 02:00:00,
2013-02-04 18:05:00,48.6,39.4,30.10,WSW,252,2.0,4.0,44,0.00,,,0.00,meteohub,2013-02-05 02:05:00,
2013-02-04 18:10:00,49.3,39.4,30.11,WSW,252,2.0,4.0,44,0.00,,,0.00,meteohub,2013-02-05 02:10:00,
2013-02-04 18:15:00,49.5,38.8,30.11,West,267,2.0,4.0,43,0.00,,,0.00,meteohub,2013-02-05 02:15:00,
2013-02-04 18:21:00,49.6,38.8,30.11,WNW,283,3.0,4.0,43,0.00,,,0.00,meteohub,2013-02-05 02:21:00,
2013-02-04 18:26:00,49.6,38.8,30.11,WNW,295,4.0,4.0,43,0.00,,,0.00,meteohub,2013-02-05 02:26:00,
2013-02-04 18:31:00,49.6,38.8,30.11,WNW,291,3.0,4.0,43,0.00,,,0.00,meteohub,2013-02-05 02:31:00,
2013-02-04 18:36:00,49.5,38.8,30.11,WNW,290,2.0,5.0,43,0.00,,,0.00,meteohub,2013-02-05 02:36:00,
2013-02-04 18:41:00,49.5,38.8,30.11,North,8,2.0,5.0,43,0.00,,,0.00,meteohub,2013-02-05 02:41:00,
2013-02-04 18:46:00,49.5,38.8,30.11,NNE,23,3.0,5.0,43,0.00,,,0.00,meteohub,2013-02-05 02:46:00,
2013-02-04 18:52:00,49.6,38.8,30.11,NNE,23,3.0,4.0,43,0.00,,,0.00,meteohub,2013-02-05 02:52:00,
2013-02-04 18:57:00,49.6,38.8,30.12,NNE,23,2.0,4.0,43,0.00,,,0.00,meteohub,2013-02-05 02:57:00,
2013-02-04 19:02:00,49.6,38.8,30.12,NNE,23,1.0,4.0,43,0.00,,,0.00,meteohub,2013-02-05 03:02:00,
2013-02-04 19:07:00,49.6,38.8,30.12,NNE,23,2.0,3.0,43,0.00,,,0.00,meteohub,2013-02-05 03:07:00,
2013-02-04 19:12:00,49.8,38.8,30.12,NNE,23,0.0,3.0,43,0.00,,,0.00,meteohub,2013-02-05 03:12:00,
2013-02-04 19:17:00,50.0,38.8,30.12,NNE,23,4.0,4.0,43,0.00,,,0.00,meteohub,2013-02-05 03:17:00,
2013-02-04 19:22:00,49.6,38.8,30.12,NNE,23,1.0,4.0,43,0.00,,,0.00,meteohub,2013-02-05 03:22:00,
2013-02-04 19:27:00,49.5,38.7,30.12,NNE,23,1.0,4.0,43,0.00,,,0.00,meteohub,2013-02-05 03:27:00,
2013-02-04 19:32:00,49.6,38.8,30.12,SW,236,2.0,5.0,43,0.00,,,0.00,meteohub,2013-02-05 03:32:00,
2013-02-04 19:38:00,49.6,38.7,30.12,WSW,238,3.0,5.0,43,0.00,,,0.00,meteohub,2013-02-05 03:38:00,
2013-02-04 19:43:00,49.5,38.7,30.13,WSW,239,3.0,5.0,43,0.00,,,0.00,meteohub,2013-02-05 03:43:00,
2013-02-04 19:48:00,49.8,38.7,30.13,WSW,256,6.0,6.0,43,0.00,,,0.00,meteohub,2013-02-05 03:48:00,
2013-02-04 19:53:00,49.8,38.7,30.13,WSW,250,6.0,6.0,43,0.00,,,0.00,meteohub,2013-02-05 03:53:00,
2013-02-04 19:58:00,49.6,38.7,30.13,WSW,253,5.0,7.0,43,0.00,,,0.00,meteohub,2013-02-05 03:58:00,
2013-02-04 20:03:00,49.5,38.7,30.13,WSW,243,6.0,7.0,43,0.00,,,0.00,meteohub,2013-02-05 04:03:00,
2013-02-04 20:09:00,49.3,38.7,30.14,WSW,255,5.0,7.0,43,0.00,,,0.00,meteohub,2013-02-05 04:09:00,
2013-02-04 20:14:00,49.3,38.5,30.13,SW,235,3.0,7.0,43,0.00,,,0.00,meteohub,2013-02-05 04:14:00,
2013-02-04 20:19:00,48.9,38.5,30.13,SW,235,3.0,6.0,43,0.00,,,0.00,meteohub,2013-02-05 04:19:00,
2013-02-04 20:24:00,49.1,38.5,30.13,SW,235,2.0,6.0,43,0.00,,,0.00,meteohub,2013-02-05 04:24:00,
2013-02-04 20:29:00,49.3,38.5,30.13,SW,236,3.0,5.0,43,0.00,,,0.00,meteohub,2013-02-05 04:29:00,
2013-02-04 20:34:00,49.8,38.5,30.13,West,269,3.0,4.0,43,0.00,,,0.00,meteohub,2013-02-05 04:34:00,
2013-02-04 20:39:00,49.8,38.5,30.13,West,269,3.0,4.0,43,0.00,,,0.00,meteohub,2013-02-05 04:39:00,
2013-02-04 20:44:00,50.2,38.3,30.14,West,270,3.0,4.0,43,0.00,,,0.00,meteohub,2013-02-05 04:44:00,
2013-02-04 20:50:00,50.2,38.3,30.13,West,269,3.0,4.0,43,0.00,,,0.00,meteohub,2013-02-05 04:50:00,
2013-02-04 20:55:00,50.2,38.3,30.14,West,276,3.0,4.0,43,0.00,,,0.00,meteohub,2013-02-05 04:55:00,
2013-02-04 21:00:00,50.2,38.3,30.14,West,277,3.0,4.0,43,0.00,,,0.00,meteohub,2013-02-05 05:00:00,
2013-02-04 21:01:00,50.2,38.3,30.14,West,276,3.0,4.0,43,0.00,,,0.00,meteohub,2013-02-05 05:01:00,
2013-02-04 21:02:00,50.0,38.3,30.14,West,276,3.0,4.0,43,0.00,,,0.00,meteohub,2013-02-05 05:02:00,
2013-02-04 21:05:00,50.0,38.3,30.14,West,277,4.0,4.0,43,0.00,,,0.00,meteohub,2013-02-05 05:05:00,
2013-02-04 21:10:00,49.6,38.3,30.14,WSW,246,5.0,6.0,43,0.00,,,0.00,meteohub,2013-02-05 05:10:00,
2013-02-04 21:16:00,48.9,38.1,30.14,WSW,246,7.0,7.0,43,0.00,,,0.00,meteohub,2013-02-05 05:16:00,
2013-02-04 21:21:00,48.6,38.1,30.14,WSW,245,6.0,7.0,43,0.00,,,0.00,meteohub,2013-02-05 05:21:00,
2013-02-04 21:26:00,48.4,38.1,30.14,WSW,248,6.0,8.0,43,0.00,,,0.00,meteohub,2013-02-05 05:26:00,
2013-02-04 21:32:00,48.0,37.9,30.14,WSW,238,7.0,10.0,43,0.00,,,0.00,meteohub,2013-02-05 05:32:00,
2013-02-04 21:37:00,47.8,37.9,30.14,West,266,7.0,10.0,43,0.00,,,0.00,meteohub,2013-02-05 05:37:00,
2013-02-04 21:42:00,47.7,37.9,30.14,West,260,6.0,10.0,43,0.00,,,0.00,meteohub,2013-02-05 05:42:00,
2013-02-04 21:47:00,47.7,37.9,30.14,WSW,255,6.0,9.0,43,0.00,,,0.00,meteohub,2013-02-05 05:47:00,
2013-02-04 21:52:00,48.0,37.8,30.14,West,259,6.0,9.0,43,0.00,,,0.00,meteohub,2013-02-05 05:52:00,
2013-02-04 21:57:00,48.0,37.8,30.14,West,260,6.0,8.0,43,0.00,,,0.00,meteohub,2013-02-05 05:57:00,
2013-02-04 22:03:00,47.5,37.2,30.15,WSW,249,7.0,9.0,42,0.00,,,0.00,meteohub,2013-02-05 06:03:00,
2013-02-04 22:08:00,47.1,37.2,30.14,WSW,243,6.0,9.0,42,0.00,,,0.00,meteohub,2013-02-05 06:08:00,
2013-02-04 22:14:00,47.3,37.2,30.15,West,259,5.0,10.0,42,0.00,,,0.00,meteohub,2013-02-05 06:14:00,
2013-02-04 22:20:00,47.5,37.0,30.14,West,266,6.0,10.0,42,0.00,,,0.00,meteohub,2013-02-05 06:20:00,
2013-02-04 22:25:00,47.7,37.0,30.14,WSW,248,7.0,9.0,42,0.00,,,0.00,meteohub,2013-02-05 06:25:00,
2013-02-04 22:31:00,47.7,37.0,30.14,West,278,5.0,8.0,42,0.00,,,0.00,meteohub,2013-02-05 06:31:00,
2013-02-04 22:36:00,47.5,37.0,30.14,WSW,242,6.0,8.0,42,0.00,,,0.00,meteohub,2013-02-05 06:36:00,
2013-02-04 22:41:00,47.1,36.9,30.14,WSW,255,6.0,8.0,42,0.00,,,0.00,meteohub,2013-02-05 06:41:00,
2013-02-04 22:47:00,47.3,36.9,30.14,WSW,253,5.0,8.0,42,0.00,,,0.00,meteohub,2013-02-05 06:47:00,
2013-02-04 22:52:00,47.1,36.9,30.14,WSW,243,4.0,8.0,42,0.00,,,0.00,meteohub,2013-02-05 06:52:00,
2013-02-04 22:57:00,47.3,36.9,30.14,WSW,243,3.0,7.0,42,0.00,,,0.00,meteohub,2013-02-05 06:57:00,
2013-02-04 23:02:00,48.2,36.7,30.14,WSW,243,5.0,6.0,42,0.00,,,0.00,meteohub,2013-02-05 07:02:00,
2013-02-04 23:08:00,48.4,36.7,30.14,WSW,245,3.0,5.0,42,0.00,,,0.00,meteohub,2013-02-05 07:08:00,
2013-02-04 23:13:00,47.8,36.5,30.14,WSW,245,2.0,7.0,42,0.00,,,0.00,meteohub,2013-02-05 07:13:00,
2013-02-04 23:18:00,47.5,36.5,30.14,WSW,245,2.0,7.0,42,0.00,,,0.00,meteohub,2013-02-05 07:18:00,
2013-02-04 23:24:00,47.5,36.5,30.14,WSW,244,5.0,6.0,42,0.00,,,0.00,meteohub,2013-02-05 07:24:00,
2013-02-04 23:29:00,48.0,36.5,30.14,WSW,248,7.0,7.0,42,0.00,,,0.00,meteohub,2013-02-05 07:29:00,
2013-02-04 23:34:00,47.8,36.5,30.14,WSW,245,6.0,7.0,42,0.00,,,0.00,meteohub,2013-02-05 07:34:00,
2013-02-04 23:40:00,47.8,36.5,30.14,WSW,247,6.0,7.0,42,0.00,,,0.00,meteohub,2013-02-05 07:40:00,
2013-02-04 23:45:00,48.2,36.5,30.14,WSW,243,7.0,7.0,42,0.00,,,0.00,meteohub,2013-02-05 07:45:00,
2013-02-04 23:50:00,48.6,36.5,30.14,WSW,246,6.0,7.0,42,0.00,,,0.00,meteohub,2013-02-05 07:50:00,
2013-02-04 23:56:00,48.7,36.3,30.14,WSW,253,7.0,8.0,42,0.00,,,0.00,meteohub,2013-02-05 07:56:00,